Probability
0 0 0 0 0 0 0 0 0 0 0 0 0 0 0 0 0 0 0 0 0 0 0 0 0 0 0 0 0 0 0 0 0 0 0 0 0 0 0 0 0 0 0
0 0 0 0 0 0 0 0 0 0 0 0 0 0 0 0 0 0 0 0 0 0 0 0 0 0 0 0 0 0 0 0 0 0 0 0 0 0 0 0 0 0 0
0 0 0 0 0 0 0 0 0 0 0 0 0 0 0 0 0 0 0 0 0 0 0 0 0 0 0 0 0 0 0 0 0 0 0 0 0 0 0 0 0 0 0
0 0 0 0 0 0 0 0 0 0 0 0 0 0 0 0 0 0 0 0 0 0 0 0 0 0 0 0 0 0 0 0 0 0 0 0 0 0 0 0 0 0 0
0 0 0 0 0 0 0 0 0 0 0 0 0 0 0 0 0 0 0 0 0 0 0 0 0 0 0 0 0 0 0 0 0 0 0 0 0 0 0 0 0 0 0
0 0 0 0 0 0 0 0 0 0 0 0 0 0 0 0 0 0 0 0 0 0 0 0 0 0 0 0 0 0 0 0 0 0 0 0 0 0 0 0 0 0 0
0 0 0 0 0 0 0 0 0 0 0 0 0 0 0 0 0 0 0 0 0 0 0 0 0 0 0 0 0 0 0 0 0 0 0 0 0 0 0 0 0 0 0
0 0 0 0 0 0 0 0 0 0 0 0 0 0 0 0 0 0 0 0 0 0 0 0 0 0 0 0 0 0 0 0 0 0 0 0 0 0 0 0 0 0 0
0 0 0 0 0 0 0 0 0 0 0 0 0 0 0 0 0 0 0 0 0 0 0 0 0 0 0 0 0 0 0 0 0 0 0 0 0 0 0 0 0 0 0
0 0 0 0 0 0 0 0 0 0 0 0 0 0 0 0 0 0 0 0 0 0 0 0 0 0 0 0 0 0 0 0 0 0 0 0 0 0 0 0 0 0 0
0 0 0 0 0 0 0 0 0 0 0 0 0 0 0 0 0 0 0 0 0 0 0 0 0 0 0 0 0 0 0 0 0 0 0 0 0 0 0 0 0 0 0
0 0 0 0 0 0 0 0 0 0 0 0 0 0 0 0 0 0 0 0 0 0 0 0 0 0 0 0 0 0 0 0 0 0 0 0 0 0 0 0 0 0 0
0 0 0 0 0 0 0 0 0 0 0 0 0 0 0 0 0 0 0 0 0 0 0 0 0 0 0 0 0 0 0 0 0 0 0 0 0 0 0 0 0 0 0
0 0 0 0 0 0 0 0 0 0 0 0 0 0 0 0 0 0 0 0 0 0 0 0 0 0 0 0 0 0 0 0 0 0 0 0 0 0 0 0 0 0 0
0 0 0 0 0 0 0 0 0 0 0 0 0 0 0 0 0 0 0 0 0 0 0 0 0 0 0 0 0 0 0 0 0 0 0 0 0 0 0 0 0 0 0
0 0 0 0 0 0 0 0 0 0 0 0 0 0 0 0 0 0 0 0 0 0 0 0 0 0 0 0 0 0 0 0 0 0 0 0 0 0 0 0 0 0 0
0 0 0 0 0 0 0 0 0 0 0 0 0 0 0 0 0 0 0 0 0 0 0 0 0 0 0 0 0 0 0 0 0 0 0 0 0 0 0 0 0 0 0
0 0 0 0 0 0 0 0 0 0 0 0 0 0 0 0 0 0 0 0 0 0 0 0 0 0 0 0 0 0 0 0 0 0 0 0 0 0 0 0 0 0 0
0 0 0 0 0 0 0 0 0 0 0 0 0 0 0 0 0 0 0 0 0 0 0 0 0 0 0 0 0 0 0 0 0 0 0 0 0 0 0 0 0 0 0
0 0 0 0 0 0 0 0 0 0 0 0 0 0 0 0 0 0 0 0 0 0 0 0 0 0 0 0 0 0 0 0 0 0 0 0 0 0 0 0 0 0 0
0 0 0 0 0 0 0 0 0 0 0 0 0 0 0 0 0 0 0 0 0 0 0 0 0 0 0 0 0 0 0 0 0 0 0 0 0 0 0 0 0 0 0
0 0 0 0 0 0 0 0 0 0 0 0 0 0 0 0 0 0 0 0 0 0 0 0 0 0 0 0 0 0 0 0 0 0 0 0 0 0 0 0 0 0 0
0 0 0 0 0 0 0 0 0 0 0 0 0 0 0 0 0 0 0 0 0 0 0 0 0 0 0 0 0 0 0 0 0 0 0 0 0 0 0 0 0 0 0
0 0 0 0 0 0 0 0 0 0 0 0 0 0 0 0 0 0 0 0 0 0 0 0 0 0 0 0 0 0 0 0 0 0 0 0 0 0 0 0 0 0 0
0 0 0 0 0 0 0 0 0 0 0 0 0 0 0 0 0 0 0 0 0 0 0 0 0 0 0 0 0 0 0 0 0 0 0 0 0 0 0 0 0 0 0
0 0 0 0 0 0 0 0 0 0 0 0 0 0 0 0 0 0 0 0 0 0 0 0 0 0 0 0 0 0 0 0 0 0 0 0 0 0 0 0 0 0 0
Wind_Speed
5 4 4 5 5 4 5 5 4 4 3 3 3 3 3 3 2 2 2 3 5 3 2 5 6 7 8 9 9 9 9 8 8 9 9 9 9 10 10 10 10 11 11
5 5 5 5 5 5 5 5 5 5 3 3 3 3 3 3 2 1 3 3 6 7 3 5 6 7 8 8 8 7 7 7 7 7 8 8 8 9 9 9 10 10 10
7 6 5 5 5 5 6 5 5 4 4 4 3 3 2 2 2 1 1 2 3 8 9 7 6 7 7 7 7 6 6 6 6 6 7 7 8 8 9 9 9 10 10
8 7 6 6 6 5 5 5 5 5 4 4 3 3 2 2 1 1 1 1 3 4 7 10 9 7 7 6 5 5 5 5 6 6 7 7 7 7 8 8 8 9 9
7 6 6 6 7 6 5 6 5 5 5 5 4 3 3 3 2 1 1 2 3 4 4 7 8 7 6 4 4 4 5 5 5 6 6 6 6 7 7 7 8 8 9
6 5 5 6 7 6 6 6 7 5 5 5 5 3 2 3 2 2 2 2 3 3 4 4 3 3 4 4 4 5 6 6 5 5 5 5 5 5 6 6 7 7 8
6 5 4 5 6 7 7 8 6 7 5 5 5 2 0 1 3 3 3 3 3 3 4 4 3 3 2 4 5 6 7 6 5 4 3 3 4 4 5 5 6 7 7
5 5 5 4 5 5 7 8 7 6 4 6 6 4 2 2 4 4 4 4 5 4 4 5 4 4 3 2 4 7 7 6 6 4 3 2 2 3 4 4 5 6 6
3 4 5 4 5 6 6 8 9 10 7 6 5 7 7 7 3 3 5 5 5 4 4 5 6 5 5 4 4 6 7 7 6 5 3 2 1 2 3 4 4 5 6
3 3 4 5 5 5 6 7 8 7 6 7 5 4 4 6 6 3 3 4 6 6 6 6 6 6 6 5 7 10 10 8 7 6 4 3 1 1 1 3 3 4 5
3 3 3 4 5 5 6 7 7 8 6 6 6 4 3 2 3 6 4 4 5 6 6 7 6 6 6 6 6 10 13 11 9 8 6 5 3 1 0 1 3 4 5
2 4 4 4 5 4 6 7 7 9 8 7 6 5 5 6 6 5 5 4 5 6 6 6 8 8 7 7 10 16 16 14 12 11 9 7 5 3 2 0 1 3 4
2 4 5 5 5 5 6 6 7 8 9 10 8 7 6 6 5 5 5 4 4 3 5 5 7 8 9 7 9 19 17 16 14 13 11 9 8 6 4 2 1 2 3
4 4 4 6 6 6 6 6 6 7 7 9 11 9 6 7 5 5 6 6 4 3 4 6 5 9 9 9 13 21 12 18 17 15 13 11 10 8 6 5 3 2 3
7 8 6 4 5 7 7 6 5 7 7 8 9 10 8 6 7 6 5 6 9 8 10 9 6 9 10 9 17 12 10 18 19 17 15 13 12 10 8 7 5 4 4
8 9 9 8 6 6 7 7 6 7 8 8 7 9 10 7 6 6 7 6 6 8 9 10 9 7 11 11 18 12 12 21 20 18 16 15 14 12 10 9 7 6 5
8 8 8 8 8 7 6 6 7 8 9 9 9 10 11 9 8 7 7 7 6 6 7 5 5 6 11 11 10 10 10 11 11 19 17 16 15 14 12 11 10 8 7
8 8 8 8 8 8 7 7 8 9 10 10 10 11 12 9 12 9 8 9 8 7 6 6 5 5 8 14 13 12 10 9 8 17 19 18 17 16 15 13 12 11 9
7 7 7 8 8 8 8 8 8 9 10 11 11 12 12 11 13 10 10 10 8 7 6 6 6 4 3 8 11 8 8 6 7 11 17 18 19 18 17 16 15 13 11
7 8 8 8 8 8 9 9 9 9 10 11 11 12 12 13 14 12 11 12 9 9 8 6 5 5 4 7 11 9 8 8 8 7 12 13 16 19 19 18 16 14 12
8 8 9 9 9 8 8 9 9 9 10 12 12 12 13 14 17 15 12 11 11 11 10 9 7 5 7 10 14 11 11 8 7 7 8 8 8 8 11 15 16 16 15
8 8 9 10 11 9 16 21 16 10 10 12 13 13 13 14 15 22 24 21 18 17 16 15 13 11 15 11 11 11 11 9 8 9 10 9 8 9 8 7 14 18 17
9 11 11 11 12 15 23 24 23 14 12 13 14 13 12 12 14 14 19 25 25 29 28 19 19 20 13 14 16 16 16 12 10 11 12 10 9 10 8 10 19 18 17
10 12 13 13 15 19 26 27 26 17 14 15 15 15 16 15 14 15 13 16 18 19 23 21 20 17 10 13 19 18 17 9 3 5 9 8 9 8 7 7 17 19 18
12 13 14 15 16 20 28 30 30 13 14 17 16 16 16 17 22 26 19 18 19 19 25 26 23 18 16 19 20 12 12 11 6 7 7 7 7 5 5 6 10 18 17
15 17 18 17 17 19 29 35 34 14 15 16 15 15 17 20 26 28 20 18 21 19 13 14 19 21 16 17 28 21 17 15 9 9 11 10 7 7 6 4 5 6 8
Wind_Direction
172 166 163 163 165 163 158 151 160 160 154 157 149 131 112 91 77 74 104 41 12 349 182 156 144 137 127 118 110 100 92 81 71 66 62 61 61 61 61 60 59 57 54
169 168 171 166 166 161 154 152 160 157 163 152 145 127 123 118 101 72 124 90 45 37 70 134 140 133 126 117 109 102 94 85 74 67 63 61 60 59 57 56 57 57 55
170 169 171 169 167 154 150 150 155 151 155 152 150 134 114 100 120 102 96 120 84 56 61 78 103 121 122 117 111 101 95 87 79 72 67 63 60 59 55 53 52 52 51
172 169 171 173 166 152 150 158 157 154 160 157 154 152 134 109 119 136 111 92 100 86 72 79 80 95 104 112 116 112 108 98 87 78 70 63 59 56 52 50 48 47 46
180 171 173 170 164 156 160 168 164 158 161 162 153 148 147 153 160 207 180 117 94 100 98 91 82 81 97 113 129 136 124 110 99 86 75 65 58 53 48 44 43 42 41
185 175 171 172 164 161 170 173 171 171 157 153 133 126 144 153 169 203 189 134 122 127 132 126 104 90 108 134 156 157 145 133 118 100 84 70 59 51 45 40 38 37 35
181 183 175 177 172 176 181 175 166 165 153 139 108 102 17 190 209 203 185 162 171 166 149 155 160 148 152 156 160 164 159 150 136 121 101 78 61 50 43 39 35 32 31
177 185 185 185 181 180 187 186 171 163 160 164 142 133 180 269 258 211 192 187 185 174 176 181 176 172 172 142 162 157 158 154 149 141 123 93 63 46 38 37 34 30 28
180 192 198 193 188 188 201 202 190 177 173 192 186 156 162 201 206 222 211 194 186 182 189 185 181 187 179 155 149 158 153 154 153 152 146 130 87 49 37 34 31 28 26
198 208 212 213 201 197 208 213 207 205 173 183 221 222 173 151 153 185 239 216 198 194 192 191 187 190 183 161 161 165 165 165 167 167 168 165 153 90 37 33 28 24 21
214 225 230 230 225 211 213 218 213 215 211 193 194 185 189 192 162 147 186 207 216 213 198 190 184 188 186 166 161 172 177 178 180 182 183 184 185 182 113 25 19 18 16
229 224 237 241 242 234 221 221 219 216 223 224 214 200 174 174 189 170 162 175 202 213 200 190 187 188 188 178 179 179 183 185 187 189 190 192 195 197 205 268 358 7 6
265 227 219 228 240 246 241 227 223 222 221 229 228 226 223 212 178 172 155 156 169 189 187 201 194 185 191 186 184 180 187 190 192 194 195 198 201 203 208 227 275 329 344
322 300 240 224 228 240 247 241 233 229 225 229 237 238 234 230 220 200 171 151 152 188 198 208 192 191 191 187 191 185 191 193 196 197 199 202 205 208 213 224 241 270 297
341 338 326 279 243 236 240 245 243 236 231 231 235 240 243 238 233 228 208 177 169 187 213 210 197 194 191 186 194 189 184 196 197 199 202 205 208 211 216 223 234 248 268
342 338 335 327 301 264 243 240 245 242 239 236 232 237 242 239 239 233 225 218 198 195 208 199 198 188 186 191 196 187 190 194 198 200 203 207 210 213 218 223 230 239 252
338 336 330 325 317 303 275 252 245 244 244 243 238 239 241 236 238 233 228 225 219 199 211 200 185 176 176 184 188 185 187 188 193 201 205 210 212 214 218 222 226 232 241
329 327 325 323 316 309 296 275 260 250 247 246 243 242 244 237 238 231 227 227 224 213 200 190 186 166 185 189 184 185 188 188 186 201 206 210 212 215 218 220 222 227 233
316 315 316 315 311 307 299 286 272 262 253 250 245 244 245 238 242 233 228 228 224 219 213 191 187 176 173 177 175 180 186 189 191 200 205 210 213 216 218 219 219 221 226
301 303 302 299 295 294 291 287 281 273 267 260 252 248 244 240 243 235 232 229 219 216 214 205 186 181 170 171 176 179 190 198 200 195 207 211 216 220 221 220 219 219 220
286 287 290 290 288 284 280 282 279 273 271 269 263 256 251 246 244 238 235 227 216 219 214 213 203 180 183 176 188 184 195 190 203 192 195 205 207 211 213 220 219 217 216
283 284 283 282 282 280 286 288 285 274 270 269 268 263 256 251 248 247 244 235 221 220 219 219 217 209 205 194 182 182 179 172 205 194 190 205 197 207 209 207 216 214 210
283 285 283 279 279 279 285 286 285 280 271 268 266 264 260 252 246 247 249 247 239 232 225 219 224 225 206 192 187 188 191 190 198 177 178 195 190 206 199 208 212 211 207
285 286 287 285 283 280 283 284 285 280 271 265 261 259 259 257 247 243 241 242 242 240 235 229 229 228 212 194 195 196 197 189 80 160 169 181 181 193 187 195 212 209 208
288 285 284 282 280 281 282 284 283 275 269 266 262 257 254 256 255 250 245 243 243 243 244 237 234 226 212 201 190 184 181 179 183 186 182 165 162 159 170 188 206 210 209
290 290 286 284 282 281 282 283 281 272 266 264 261 256 249 249 254 252 245 241 242 240 229 235 236 234 220 207 198 194 189 191 185 184 186 170 158 149 165 185 187 199 207